Location: Newark
(48.8656°N, 2.3211°E)
Time: 02:40:02
(UTC+00:00)

OTV 5 (USA 277) - Visible Passes

Search period start: 24 April 2019 00:00
Search period end: 04 May 2019 00:00
Orbit: 309 x 326 km, 54.5° (Epoch: 21 April)

Date Brightness Start Highest point End Pass type
(mag) Time Alt. Az. Time Alt. Az. Time Alt. Az.
24 Apr ? 19:36:54 10° S 19:38:55 18° SE 19:40:55 10° E visible
24 Apr ? 21:10:18 10° WSW 21:12:45 56° WNW 21:12:45 56° WNW visible
25 Apr ? 19:50:53 10° SW 19:53:28 41° SE 19:56:05 10° ENE visible
25 Apr ? 21:25:17 10° W 21:27:51 35° NNW 21:28:14 33° N visible
26 Apr ? 20:05:25 10° WSW 20:08:09 86° NW 20:10:53 10° ENE visible
26 Apr ? 21:40:22 10° WNW 21:42:45 26° N 21:43:08 25° N visible
27 Apr ? 20:20:17 10° W 20:22:56 44° NNW 20:25:34 10° NE visible
27 Apr ? 21:55:25 10° WNW 21:57:40 23° N 21:57:40 23° N visible
28 Apr ? 20:35:20 10° WNW 20:37:49 29° NNW 20:40:16 10° NE visible
28 Apr ? 22:10:20 10° NW 22:11:59 22° NNW 22:11:59 22° NNW visible
29 Apr ? 20:50:25 10° WNW 20:52:44 24° N 20:55:03 10° NE visible
29 Apr ? 22:25:05 10° NW 22:26:11 19° NW 22:26:11 19° NW visible
30 Apr ? 21:05:24 10° NW 21:07:42 23° N 21:09:25 14° NE visible
30 Apr ? 22:39:46 10° NW 22:40:18 14° NW 22:40:18 14° NW visible
01 May ? 19:45:23 10° WNW 19:47:46 26° N 19:50:09 10° NE visible
01 May ? 21:20:13 10° NW 21:22:38 27° N 21:23:29 23° NE visible
02 May ? 20:00:25 10° WNW 20:02:43 23° N 20:05:00 10° NE visible
02 May ? 21:34:56 10° NW 21:37:31 38° NNE 21:37:31 38° NNE visible
03 May ? 20:15:19 10° NW 20:17:40 25° N 20:20:00 10° ENE visible
03 May ? 21:49:36 10° WNW 21:51:32 40° NW 21:51:32 40° NW visible
